Robert Gray Army Air Field Airport Fort Hood,Killeen US
ICAO: KGRK
IATA: GRK
Category: Medium
Scheduled Services: Yes

Elevation: 1015 ft
TransAlt. 18000 ft.

Airport Communications:
GRAY APP/DEP:120.075
ATIS:111.8
CLNC DEL:121.8
GRAY GND:126.2
RANGE CTL:30.45
FT HOOD FLT FLW:38.75
PMSV GRAY METRO:41.2
PTD:38.7
TWR:120.75

KGRK Zoom In..

If you have problems with the map follow the link
https://www.worldairports.se/pages/airport.php?
ICAO=KGRK

Runways:

(A) RW 15 length 10000 ft width 200 ft
ILS 111.10 / hdg 150

(B) RW 33 length 10000 ft width 200 ft
ILS 109.35 / hdg 330

Location; KGRK
Day. 16 / Time. 11.58 Zulu
* Altimeter: 30.15
* Temperature: 09° c. 48.2°f.
* Wind from: 240° Speed 04 kn.
Dewpoint: -01° c.
Visibility: 10 Statute Miles.
Clouds: Clear (automated report).

KGRK 161158Z AUTO 24004KT 10SM CLR 09/M01 A3015 RMK AO2 SLP210 T00891011 10095 20065 50002


Wind From 240°
Speed 04 kn.

 
 
jpsmedia.com for Web Design worldairports.se 2018   terms of use